Regional Weather Roundup
Issued by NWS Wakefield, VA

Home | Current Version | Previous Version | Graphics & Text | Print | Product List | Glossary On
Versions: 1 2 3 4 5 6 7 8 9 10 11 12 13 14 15 16 17 18 19 20 21 22 23 24 25 26 27 28 29 30 31 32 33 34 35 36 37 38 39 40 41 42 43 44 45 46 47 48 49 50
000
ASUS41 KAKQ 051410
RWRAKQ

REGIONAL WEATHER ROUNDUP
NATIONAL WEATHER SERVICE WAKEFIELD VA
900 AM EST THU MAR 05 2015

Note: "fair" indicates few or no clouds below 12,000 feet with no
significant weather and/or obstructions to visibility. * = Denotes
station may not report precipitation (e.g., rain,snow,etc.),
thunder or fog.

VAZ042-051-052>054-056-051500-
NORTHERN VIRGINIA

CITY           SKY/WX    TMP DP  RH WIND       PRES   REMARKS
WASH NATIONAL  LGT SNOW  35  30  82 N14       30.12S VSB 3/4
DULLES         LGT SNOW  30  27  86 N17G25    30.13R VSB 1   WCI  18
FORT BELVOIR   LGT SNOW  32  32 100 NW10G16   30.12R FOG     WCI  24
QUANTICO       LGT RAIN  34  29  82 N15G30    30.14R WCI  24
FREDERICKSBRG* RAIN      35  35 100 N9        30.11R
STAFFORD*      LGT SNOW  33  32  98 N9        30.15R
WARRENTON      LGT SNOW  33  33 100 N14       30.11R WCI  23
CULPEPER*      LGT SNOW  34  32  93 N12       30.12R
MANASSAS*      CLOUDY    32  32 100 N13       30.12R VSB 1   WCI  22
LEESBURG*      LGT SNOW  32  32 100 N13G22    30.15R VSB 3/4 WCI  22
WINCHESTER     SNOW      30  27  86 NW6       30.13R VSB 1/4
FRONT ROYAL*   CLOUDY    30  28  93 N6        30.11R VSB 1/2
LURAY*         LGT SNOW  32  32 100 NE12      30.08S WCI  23
$$

VAZ048-049-060>072-079>083-051500-
CENTRAL AND SOUTH CENTRAL VIRGINIA

CITY           SKY/WX    TMP DP  RH WIND       PRES   REMARKS
RICHMOND       RAIN      37  34  89 N10       30.07R FOG
CHESTERFIELD*  CLOUDY    37  25  60 N10G21    30.09R
PETERSBURG*    RAIN      39  37  93 N15G24    30.07R
HANOVER        LGT RAIN  36  34  92 N9        30.10R FOG
TAPPAHANNOCK*  DRIZZLE   37  35  92 N9        30.08R
QUINTON*       CLOUDY    37  36  95 NE7       30.06R
CHARLOTTSVILLE LGT RAIN  35  33  92 E8        30.04S FOG
GORDONSVILLE*  CLOUDY    33  31  96 NE13      30.06R FOG     WCI  23
ORANGE*        MIX PCPN  34  32  93 N15G23    30.09R WCI  24
LOUISA*        LGT RAIN  36  34  93 NE8G17    30.06R
BUMPASS*       CLOUDY    34  33  96 NE6       30.09R
FARMVILLE*     RAIN      38  38 100 NE9       29.85S
CREWE*         CLOUDY    37  36  94 NE7       30.07R
FORT PICKETT*  CLOUDY    37  36  98 N13       30.06R
CHASE CITY*    CLOUDY    40  40 100 NE10G23   30.03R
CLARKSVILLE*   CLOUDY    43  41  93 NE10G24   29.99R
SOUTH HILL*    CLOUDY    38  37  96 N15G23    30.07R
LAWRENCEVILLE* CLOUDY    38  38  99 N6        30.04R
EMPORIA*       DRIZZLE   39  39 100 NW10      30.06R
$$

VAZ088>098-051500-
SOUTHEAST VIRGINIA

CITY           SKY/WX    TMP DP  RH WIND       PRES   REMARKS
NORFOLK        LGT SNOW  37  35  92 N18       30.04R VSB 1
VIRGINIA BEACH LGT RAIN  41  38  89 N17       30.05R FOG
NORFOLK NAVAL  DRIZZLE   40  35  83 N20       30.05S FOG
WEST POINT*    CLOUDY    39  36  89 N12G18    30.09R
SALUDA*        CLOUDY    36  33  89 N13G21    30.08R
NEWPORT NEWS   LGT RAIN  40  36  86 NE13G22   30.04F FOG
LANGLEY AFB    LGT RAIN  37  36  93 NE17G26   30.03F FOG
FORT EUSTIS    DRIZZLE   37 N/A N/A E9G20     30.02S
WILLIAMSBURG*  CLOUDY    41  39  93 NE7       30.06R
HR EXEC AP*    CLOUDY    37  36  93 NE12G21   30.06S
FRANKLIN*      DRIZZLE   40  39  96 NE14      30.02F
WAKEFIELD      LGT RAIN  41  38  89 N8G21     30.04R FOG
$$

VAZ020-022-025-037-045-051500-
WEST CENTRAL AND SOUTHWEST VIRGINIA

CITY           SKY/WX    TMP DP  RH WIND       PRES   REMARKS
STAUNTON*      MIX PCPN  32  30  93 N10       30.08R WCI  24
WAYNESBORO*    CLOUDY    31  30  95 N10       30.04R WCI  23
HOT SPRINGS VA LGT SNOW  31  31 100 CALM      29.90R
LYNCHBURG      LGT RAIN  39  38  96 NE13      30.01R
DANVILLE       RAIN      47  44  90 NE22G28   29.96F FOG
SOUTH BOSTON*  CLOUDY    42  41  94 NE8G17    30.01R
MARTINSVILLE   DRIZZLE   42  42 100 N5        29.98S
ROANOKE        RAIN      38  36  92 N5        30.00F FOG
BLACKSBURG     MIX PCPN  32  32  99 NW3       29.98F
DUBLIN*        LGT SNOW  34  34 100 NW6       30.00R
MARION*        HVY RAIN  36  34  92 W7        30.02R
HILLSVILLE*    MIX PCPN  33  32  99 N10       29.94R WCI  24
RICHLANDS*     MIX PCPN  29  27  93 N8        30.01R
WISE*          LGT SNOW  27  27 100 N10       30.05R WCI  17
ABINGDON*      DRIZZLE   36  35  96 CALM      30.00S
$$

MDZ021>025-VAZ099-100-051500-
SOUTHERN MARYLAND AND THE DELMARVA PENINSULA

CITY           SKY/WX    TMP DP  RH WIND       PRES   REMARKS
PATUXENT RIVER DRIZZLE   34  31  88 N15G23    30.10R FOG     WCI  24
BAY BRIDGE APT LGT SNOW  32  32 100 N12G17    30.11F WCI  23
LEONARDTOWN    CLOUDY    32  32 100 N7        30.11S
DOVER          LGTSLEET  33  33 100 N10       30.10R FOG
GEORGETOWN     LGT RAIN  35  33  92 N8        30.09R FOG
EASTON         LGTSLEET  36  36 100 N10G16    30.14R FOG
CAMBRIDGE      CLOUDY    36  34  93 N12       30.10S
SALISBURY      LGT RAIN  38  34  85 N13       30.08R FOG
OCEAN CITY     MIX PCPN  36  35  96 N14       30.07R FOG
WALLOPS ISLAND LGT RAIN  37  35  92 N12       30.06S FOG
ACCOMACK*      DRIZZLE   36  34  93 N8        30.06R
$$

NCZ012>017-030>032-051500-
NORTH CENTRAL AND EASTERN NORTH CAROLINA

CITY           SKY/WX    TMP DP  RH WIND       PRES   REMARKS
ROANOKE RAPIDS RAIN      45  43  93 NE10G16   29.98S
RALEIGH        LGT RAIN  64  58  80 SW5       29.89F
ELIZABETH CITY LGT RAIN  43  41  93 NE17G25   30.02R FOG
AHOSKIE*       LGT RAIN  43  42  95 NE12G17   30.00S
EDENTON*       CLOUDY    46  45  95 NE12G17   29.99R FOG
CURRITUCK*     DRIZZLE   42  40  95 N16G24    30.03R
KILL DEVIL HLS CLOUDY    40  40 100 N10G18    29.98S FOG
MANTEO         CLOUDY    41  41 100 N17       30.00R FOG
CAPE HATTERAS  FOG       59  59 100 SW15G22   29.98S VSB 1/4
TARBORO*       CLOUDY    54  51  89 N10       29.96R
GOLDSBORO      PTSUNNY   70  69  98 SW13G22   29.91R
WASHINGTON     MOSUNNY   69  62  78 SW12      29.94S
GREENVILLE     MOSUNNY   70  63  78 SW9       29.95S
NEW BERN       SUNNY     71  61  70 SW13      29.96R
WILMINGTON     MOSUNNY   69  63  81 SW17      29.98R
$$

VAZ048-051500-
ELSEWHERE

CITY           SKY/WX    TMP DP  RH WIND       PRES   REMARKS
HARRISBURG PA  SNOW      29  28  96 N8        30.14R VSB 1/4
BALTIMORE      LGT SNOW  31  30  96 N7        30.10F VSB 3/4
ANNAPOLIS      LGT SNOW  32  29  88 N13       30.12F FOG     WCI  22
ANDREWS AFB    MIX PCPN  32  31  96 N16G22    30.09S FOG     WCI  21
PHILADELPHIA   SNOW      32  30  92 N7        30.12S VSB 1/2
HENDERSON NC   HVY RAIN  46  44  94 N13G20    29.97R
GREENSBORO     HVY RAIN  49  47  93 NE14G21   29.92R FOG
ROCKY MOUNT    CLOUDY    64  60  87 N14       29.93R
$$

VAZ100-051500-
MARINE

STATION/POSITION TIME  TEMP    WIND        PRES    WAVE   SWELL
                       AIR SEA DIR/SP/G            HT/PER HT/PER
                 (UTC) (F)     (DEG/KT/KT) (MB)    (FT/S) (FT/S)
BRANDYWINE LGT   1400   33 31  340/ 14/ 15 1019.1R
CAPE MAY NJ      1400   34 35  340/  7/ 12 1018.4R
LEWES DE         1400   33 32  340/ 13/ 15 1018.6R
15NM E FENWICK I 1400   34 36              1017.4R   4/ 8
OCEAN-CITY-INLET 1400   35 33   10/ 14/ 18 1017.6S
WACHAPREAGUE VA  1400   37 39  350/  6/ 11 1017.9R
THOMAS POINT MD  1400   32 32  360/ 17/ 18 1020.3F
COVE POINT MD    1400   32      20/ 14/ 16 1019.1R
SOLOMONS ISLAND  1400      33                N/A
BISHOPS HEAD MD  1400   35 35   10/ 11/ 16 1018.2F
CAMBRIDGE MD     1400   34 32  350/ 14/ 20 1019.1F
LEWISETTA VA     1400   35 34   30/  6/ 12 1019.1R
RAPPAHANNOCK LGT 1400           10/ 22/ 25 1017.9F
STINGRAY PT      1400   34      30/ 16/ 19   N/A
YORK RVR RNG VA  1400   37      40/ 20/ 25 1016.8F
YORKTOWN VA      1400   37 35   40/ 14/ 18 1017.4F
DOMINION TERM VA 1400   38      20/  9/ 20 1017.7R
KIPTOPEKE VA     1400      40   20/ 10/ 14   N/A
CHES BAY BRIDGE  1400   36 34  350/ 20/ 25 1016.9R
CAPE HENRY VA    1400   37      30/ 14/ 15 1015.7F
CHESAPEAKE LGHT  1300   37      20/ 21/ 23 1016.7R
WILLOUBY STN VA  1400   36      10/ 18/ 24 1017.9R
S CRANEY ISL VA  1400           10/ 21/ 25 1017.3R
CAPE HENRY BUOY  1400      36                N/A     4/ 5   2/11
1ST LANDING BUOY 1400   35      10/ 12/ 16 1016.5F
OFFSHORE WE BUOY 1400      37                N/A     5/ 5   2/10
64NM E OF VA BCH 1400   47 51  360/ 19/ 23 1014.7R   6/ 8   2/ 8
DUCK PIER NC     1400   38 36   10/ 12/ 15 1015.1S
44100 DUCK FRF   1300      37                N/A     4/ 7   2/11
44056 DUCK FRF   1400      35                N/A     3/10   2/11
OREGON INLET NC  1400      50  350/ 11/ 13 1015.6R
HATTERAS NC      1400   61 49  220/ 12/ 19 1015.4F
CAPE LOOKOUT NC  1300   61     210/ 16/ 19 1015.4R
$$


USA.gov is the U.S. government's official web portal to all federal, state and local government web resources and services.